Mon, 24 Jan 2022 06:10:42 UTC

Information for RPM xxhash-libs-0.7.2-3.fc32.i686.rpm

ID20488022
Namexxhash-libs
Version0.7.2
Release3.fc32
Epoch
Archi686
SummaryExtremely fast hash algorithm - library
DescriptionxxHash is an Extremely fast Hash algorithm, running at RAM speed limits. It successfully completes the SMHasher test suite which evaluates collision, dispersion and randomness qualities of hash functions. Code is highly portable, and hashes are identical on all platforms (little / big endian).
Build Time2020-02-07 07:23:22 GMT
Size35,720
fc0f963a81ecd5123a7712c7bbe9a827
LicenseBSD
Buildrootf32-build-19378760-1356724
Provides
libxxhash.so.0
xxhash-libs = 0.7.2-3.fc32
xxhash-libs(x86-32) = 0.7.2-3.fc32
Obsoletes No Obsoletes
Conflicts No Conflicts
Requires
libc.so.6
libc.so.6(GLIBC_2.0)
libc.so.6(GLIBC_2.1.3)
libc.so.6(GLIBC_2.3.4)
libc.so.6(GLIBC_2.4)
rpmlib(CompressedFileNames) <= 3.0.4-1
rpmlib(FileDigests) <= 4.6.0-1
rpmlib(PayloadFilesHavePrefix) <= 4.0-1
rpmlib(PayloadIsZstd) <= 5.4.18-1
rtld(GNU_HASH)
Recommends No Recommends
Suggests No Suggests
Supplements No Supplements
Enhances No Enhances
Files
1 through 9 of 9
Name ascending sort Size
/usr/lib/.build-id0
/usr/lib/.build-id/e80
/usr/lib/.build-id/e8/e869e7e950936300eb6ba8b0db51dd7a165f8538
/usr/lib/libxxhash.so.018
/usr/lib/libxxhash.so.0.7.252,424
/usr/share/doc/xxhash-libs0
/usr/share/doc/xxhash-libs/README.md8,347
/usr/share/licenses/xxhash-libs0
/usr/share/licenses/xxhash-libs/LICENSE2,235
Component of
Page:
1 through 50 of 30887 >>>
Buildroot descending sort Created State
f32-build-19875734-1410603 2020-03-16 20:21:42 expired
f32-build-19875613-1410603 2020-03-16 20:10:12 expired
f32-build-19875282-1410529 2020-03-16 19:42:48 expired
f32-build-19875229-1410529 2020-03-16 19:38:50 expired
f32-build-19875218-1410529 2020-03-16 19:38:05 expired
f32-build-19875189-1410529 2020-03-16 19:33:09 expired
f32-build-19875174-1410529 2020-03-16 19:17:06 expired
f32-build-19875085-1410529 2020-03-16 19:08:22 expired
f32-build-19875077-1410529 2020-03-16 19:07:22 expired
f32-build-19874945-1410486 2020-03-16 18:49:24 expired
f32-build-19874898-1410486 2020-03-16 18:48:18 expired
f32-build-19874552-1410433 2020-03-16 18:14:33 expired
f32-build-19874201-1410433 2020-03-16 17:44:40 expired
f32-build-19874041-1410433 2020-03-16 17:28:10 expired
f32-build-19874039-1410433 2020-03-16 17:24:18 expired
f32-build-19873815-1410433 2020-03-16 16:47:43 expired
f32-build-19873781-1410433 2020-03-16 16:34:32 expired
f32-build-19873689-1410433 2020-03-16 16:26:44 expired
f32-build-19873560-1410393 2020-03-16 16:08:11 expired
f32-build-19873453-1410393 2020-03-16 15:55:40 expired
f32-build-19873373-1410393 2020-03-16 15:43:23 expired
f32-build-19873370-1410393 2020-03-16 15:43:21 expired
f32-build-19873338-1410393 2020-03-16 15:39:07 expired
f32-build-19873131-1410393 2020-03-16 15:25:34 expired
f32-build-19873130-1410393 2020-03-16 15:24:50 expired
f32-build-19873015-1410393 2020-03-16 15:12:31 expired
f32-build-19873009-1410393 2020-03-16 15:11:48 expired
f32-build-19872995-1410393 2020-03-16 15:07:56 expired
f32-build-19872994-1410393 2020-03-16 15:07:07 expired
f32-build-19872920-1410393 2020-03-16 14:59:57 expired
f32-build-19872892-1410393 2020-03-16 14:58:44 expired
f32-build-19871899-1410280 2020-03-16 14:06:24 expired
f32-build-19871132-1410280 2020-03-16 13:27:08 expired
f32-build-19871113-1410253 2020-03-16 13:20:40 expired
f32-build-19871107-1410253 2020-03-16 13:19:57 expired
f32-build-19871023-1410253 2020-03-16 13:13:25 expired
f32-build-19870970-1410253 2020-03-16 13:09:02 expired
f32-build-19870849-1410125 2020-03-16 12:57:50 expired
f32-build-19870728-1410125 2020-03-16 12:53:38 expired
f32-build-19870330-1410125 2020-03-16 12:40:23 expired
f32-build-19869938-1410125 2020-03-16 12:27:34 expired
f32-build-19869885-1410125 2020-03-16 12:26:13 expired
f32-build-19868404-1410125 2020-03-16 11:34:03 expired
f32-build-19868130-1410125 2020-03-16 11:21:27 expired
f32-build-19868075-1410125 2020-03-16 11:19:10 expired
f32-build-19867766-1410125 2020-03-16 11:09:20 expired
f32-build-19867411-1410125 2020-03-16 10:56:43 expired
f32-build-19867085-1410125 2020-03-16 10:45:07 expired
f32-build-19867049-1410125 2020-03-16 10:43:51 expired
f32-build-19865761-1410125 2020-03-16 09:56:55 expired